Cloud_Cover
0 0 0 0 0 1 5 5 100 69 100 99 5 25 100 100 100 100 100 100 99 100 59 1 6 10 2 1 4 0 35 0 0 0 0 75 21 95 97 80 68 0 0 0
0 0 0 0 0 0 3 20 52 58 88 99 46 78 100 100 100 100 100 100 100 100 100 15 25 16 0 0 0 0 0 0 0 0 0 44 100 97 100 100 28 31 62 0
0 0 0 0 0 0 0 5 5 35 84 100 72 81 100 100 100 100 81 98 94 98 100 65 6 0 0 0 0 0 0 0 0 0 7 98 100 100 16 8 5 52 26 0
0 0 0 0 0 0 0 0 90 99 100 100 55 81 100 100 67 4 100 100 100 51 65 77 26 0 3 0 0 0 0 0 0 14 0 51 20 9 64 6 38 4 13 0
0 0 0 0 0 0 0 65 92 69 58 96 34 6 5 100 79 96 100 100 100 70 31 32 31 1 2 0 0 0 0 0 0 5 0 0 0 87 92 98 91 95 1 2
0 0 0 0 0 4 0 29 99 98 66 5 4 22 15 53 100 42 100 100 100 78 76 100 92 54 78 0 0 0 0 0 0 0 0 0 0 74 50 63 100 55 10 0
3 5 0 0 0 1 1 4 19 41 100 4 9 98 0 11 89 100 79 78 5 64 78 100 96 25 18 100 0 0 0 0 0 0 0 0 0 6 97 100 94 66 17 1
5 10 3 0 0 2 5 5 9 5 4 4 15 83 0 52 100 100 59 71 71 43 100 100 50 88 100 86 8 0 0 0 0 0 0 0 0 0 3 97 43 0 0 82
94 15 5 0 0 89 26 5 52 33 2 6 79 14 5 1 23 1 6 14 96 98 63 100 100 100 49 81 100 14 0 0 0 0 0 0 0 0 0 0 0 0 15 63
98 48 58 0 1 44 99 28 17 42 97 100 100 0 0 0 0 0 5 28 6 78 100 95 100 100 100 100 100 100 21 0 0 0 0 0 0 0 0 0 0 0 3 90
84 91 100 0 0 4 5 5 0 80 80 100 83 16 70 41 0 0 0 61 3 98 100 100 100 100 100 100 100 100 53 93 0 0 0 0 0 0 0 0 0 0 0 13
99 63 100 5 0 0 0 16 0 21 0 100 100 72 100 92 0 0 0 44 72 70 100 99 100 100 100 100 100 100 100 100 40 88 1 0 0 0 0 0 0 0 0 0
7 58 100 72 0 0 0 0 0 3 47 100 95 81 6 100 95 0 0 0 0 0 0 84 26 26 100 100 100 100 100 100 100 100 78 1 0 0 0 0 0 0 0 0
99 90 98 97 71 14 0 0 0 26 97 100 100 62 95 79 16 0 4 19 0 0 0 2 26 5 0 11 59 100 100 97 100 100 100 100 100 0 0 0 0 0 0 0
96 100 97 90 73 44 68 0 2 0 0 100 100 94 62 36 8 22 0 28 1 0 0 0 0 0 0 0 0 3 6 74 100 44 100 100 100 100 100 85 0 0 0 0
52 82 94 88 88 4 5 51 53 1 0 99 39 95 74 100 98 100 34 44 12 0 0 0 0 0 0 0 0 0 0 1 100 71 100 100 100 100 100 100 7 2 0 0
94 100 14 96 100 100 26 85 66 1 42 74 2 79 100 100 89 100 98 35 0 0 0 0 0 0 0 0 0 0 0 0 1 90 71 85 54 100 100 100 68 5 5 4
48 93 53 96 95 75 95 71 22 72 56 69 26 90 50 69 5 12 6 0 0 0 0 0 0 0 0 0 0 0 0 0 0 0 1 3 57 98 98 100 17 5 100 86
86 99 100 100 78 77 14 94 100 100 100 40 19 100 100 73 22 0 0 0 0 0 0 0 0 0 0 0 0 0 0 0 0 0 0 0 1 13 100 16 56 90 74 100
100 80 97 100 80 100 100 44 98 100 50 99 63 2 5 2 4 0 0 0 0 0 0 0 0 0 0 0 0 0 0 0 0 0 0 19 50 51 89 100 100 100 74 100
100 100 51 23 100 100 7 97 100 100 100 97 100 69 5 1 0 7 0 0 0 0 0 0 0 0 0 0 0 0 0 0 0 0 0 0 0 0 0 12 20 50 93 100
97 100 100 97 98 99 4 3 100 74 100 98 100 88 50 36 1 0 0 0 0 0 0 0 0 0 0 0 0 0 0 0 0 0 0 0 0 0 0 0 0 0 25 43
99 49 41 94 80 19 99 6 4 100 99 100 100 100 100 100 100 2 1 0 0 0 0 0 0 0 0 0 0 0 0 0 0 0 0 0 0 0 0 0 0 0 0 43
38 72 100 97 92 60 86 35 46 4 28 50 64 100 100 100 100 48 5 4 1 0 0 0 0 0 0 0 0 1 0 0 0 0 0 0 0 0 0 0 0 0 0 0
27 80 79 95 100 100 25 5 5 18 5 3 87 99 79 100 100 72 9 5 5 5 5 3 2 9 20 25 23 3 95 80 68 12 0 0 0 0 0 0 0 0 0 0
70 12 78 6 32 45 100 64 5 5 5 5 3 6 84 100 100 100 100 39 5 5 5 5 5 10 26 28 24 25 82 100 79 57 41 5 0 0 0 0 0 0 0 0